Location: Bogis-Bossey
(46.3500°N, 6.1667°E)
Time: 18:22:45
(UTC+00:00)

USA 281 - Pass Details

Date: 17 August 2022
Orbit: 1078 x 1081 km, 106.0° (Epoch: 29 September)

Event Time Altitude Azimuth Distance (km) Brightness Sun altitude
Exits shadow 19:56:23 - 170° (S) 3,613 5.6 -12.3°
Reaches altitude 10° 19:58:17 10° 174° (S) 2,913 5.1 -12.6°
Maximum altitude 20:04:39 53° 250° (WSW) 1,308 3.9 -13.4°
Drops below altitude 10° 20:11:05 10° 327° (NNW) 2,931 6.7 -14.3°
Sets 20:13:41 0° 332° (NNW) 3,891 7.4 -14.7°
